Temp
17 15 15 17 18 20 21 20 20 22 21 21 20 21 20 20 21 21 21 20 19 19 20 21 21 20 19 19 17 16 15 15 14 14 14 14 14 14 13 13 12 12 12 12
16 15 17 19 20 20 20 19 20 19 21 21 21 22 21 20 20 21 22 21 20 20 19 19 19 19 18 18 17 15 15 14 14 14 15 15 15 14 13 13 12 12 12 12
16 18 19 19 19 19 19 19 20 22 20 21 21 21 22 21 21 21 22 22 20 20 18 16 17 17 17 17 16 15 15 14 14 14 14 14 14 13 13 12 12 11 11 12
17 19 18 19 18 19 18 20 20 21 19 17 20 18 20 22 22 21 20 21 20 19 17 16 16 16 16 16 16 16 15 14 14 13 13 13 13 13 13 13 12 11 11 11
16 17 17 17 18 18 18 18 20 21 19 20 21 16 20 22 20 20 20 19 20 18 17 15 15 16 16 15 15 15 14 13 13 13 13 13 13 14 13 12 12 11 11 11
17 16 16 16 17 17 18 19 20 20 17 14 18 16 19 21 22 21 20 18 18 17 15 15 16 15 14 14 14 13 13 13 13 12 13 13 13 13 12 12 11 11 11 10
17 17 16 16 17 17 17 18 13 14 13 14 16 15 18 21 18 19 18 16 15 15 14 13 13 13 13 13 13 13 13 12 12 12 12 12 12 12 12 12 12 12 11 11
14 13 16 16 16 16 17 18 13 17 14 14 17 15 17 17 16 16 16 14 14 14 13 12 13 14 13 13 12 13 13 12 12 12 12 12 11 11 11 11 11 11 11 11
17 15 15 15 16 16 18 15 18 16 18 17 14 19 18 16 16 15 14 14 13 13 13 12 14 14 14 13 13 13 13 13 12 12 11 11 11 11 11 11 10 10 10 10
17 16 16 15 15 15 16 16 16 12 16 19 17 21 14 15 15 15 14 13 13 12 12 12 13 14 14 13 13 13 12 12 12 11 11 11 11 10 10 10 10 10 9 9
16 17 14 15 14 15 14 16 16 16 16 17 17 14 18 13 15 14 14 13 12 12 11 11 12 13 13 13 12 12 12 12 11 11 11 10 10 10 9 9 9 9 9 8
15 15 14 16 15 15 16 18 18 14 17 16 15 13 17 17 16 15 13 13 12 11 11 10 11 12 12 12 12 11 11 11 11 10 10 9 9 9 9 9 8 8 8 8
14 14 12 14 14 15 15 16 17 17 14 15 16 16 16 15 16 14 12 11 10 10 10 10 10 10 11 11 10 10 10 10 10 9 9 9 8 8 8 7 7 7 7 7
13 14 15 13 16 16 15 15 15 15 11 15 16 18 14 14 14 13 11 10 10 10 10 9 8 9 10 10 9 9 9 8 8 8 8 7 7 7 7 7 7 6 6 6
13 13 14 14 14 15 15 15 14 13 14 16 18 19 17 14 13 12 11 10 10 10 9 9 8 8 9 9 9 8 8 8 8 7 7 6 6 6 6 6 6 6 6 6
13 12 14 12 15 15 13 13 14 14 14 14 15 16 16 14 13 12 11 11 10 9 9 9 8 9 9 9 8 8 7 7 7 7 6 6 6 6 6 6 5 5 5 5
13 12 13 13 15 15 13 14 14 15 16 15 14 16 16 13 14 12 11 10 10 9 9 8 8 9 9 8 8 7 7 7 6 6 6 6 6 5 5 5 5 4 4 4
13 13 13 12 15 13 16 15 15 15 16 15 14 15 12 12 11 13 11 10 9 9 8 8 8 9 8 8 7 7 7 6 6 6 5 5 5 4 4 4 3 3 3 3
12 12 12 12 12 15 17 13 14 15 16 15 15 12 11 10 10 10 11 11 9 8 9 9 9 8 8 7 6 6 6 6 6 5 5 4 3 3 3 2 2 2 2 2
10 10 10 12 12 13 15 13 14 14 12 13 14 12 10 10 9 8 10 10 8 10 9 8 8 7 6 6 6 5 5 5 5 4 3 3 2 2 2 2 2 1 1 1
9 9 9 10 11 13 13 12 13 13 13 12 13 11 10 9 8 8 8 7 8 8 8 7 7 6 5 5 5 4 4 4 3 3 2 2 2 1 1 1 1 0 0 -0
11 10 10 10 11 11 11 11 12 11 11 11 11 11 8 7 8 7 7 7 7 6 6 6 5 5 4 4 4 3 3 3 2 2 1 1 1 1 1 0 0 -0 -0 -1
11 13 13 12 12 12 11 12 11 11 10 11 9 9 8 7 7 7 6 5 5 5 5 5 5 4 4 3 3 2 2 2 1 1 0 0 -0 -0 -0 -0 -1 -1 -1 -1
11 12 11 12 14 11 11 11 10 10 11 10 9 9 8 7 6 6 5 4 4 4 4 4 4 4 4 3 2 2 1 1 0 -0 -1 -1 -1 -1 -1 -1 -2 -1 -1 -1
12 11 11 10 12 11 11 10 9 10 9 9 9 9 8 7 6 5 4 4 4 4 4 4 3 3 2 2 1 1 0 -0 -1 -1 -2 -2 -2 -2 -2 -2 -2 -2 -2 -2
10 11 11 11 12 10 12 9 10 8 8 7 7 7 7 6 5 5 4 4 4 3 3 2 2 1 1 1 0 0 -0 -1 -2 -2 -3 -3 -3 -3 -3 -3 -3 -3 -3 -3
Height
792 800 803 792 785 779 777 783 785 772 772 780 785 784 785 782 784 787 786 786 789 792 797 799 803 808 811 815 818 822 826 829 832 834 836 839 840 842 842 842 842 842 842 842
795 803 788 780 777 779 779 786 782 783 775 780 781 781 778 782 783 780 778 780 781 788 793 797 802 806 810 814 817 820 825 829 831 833 836 838 839 841 841 841 842 842 842 842
794 789 778 783 782 784 785 785 779 776 782 779 781 787 779 774 774 775 772 773 774 783 790 795 800 806 810 813 816 819 823 827 830 832 833 836 837 839 841 841 842 842 842 842
790 785 786 786 789 785 791 775 775 775 788 806 782 811 782 773 773 772 774 773 773 778 786 792 799 805 809 812 816 819 822 825 828 830 832 834 836 838 839 840 841 841 841 841
796 792 791 791 788 785 787 783 780 777 787 787 786 812 780 763 775 773 771 772 773 777 782 790 797 803 808 811 815 818 820 823 826 829 832 834 835 836 837 839 839 840 840 840
792 792 792 796 789 789 785 783 780 780 795 823 792 803 787 772 764 765 768 772 775 780 785 791 796 803 807 812 815 817 819 823 825 828 830 832 834 835 836 837 838 839 840 840
793 793 793 793 791 789 790 792 823 827 828 825 798 810 786 765 766 764 770 777 781 784 788 793 798 803 808 811 814 816 819 822 824 827 829 831 832 834 835 836 837 838 839 839
805 813 794 795 795 797 793 792 823 811 826 817 797 811 788 774 773 773 774 780 785 789 791 795 799 803 807 811 814 816 818 821 824 826 828 830 831 833 834 836 837 837 838 838
793 800 796 795 794 797 792 804 792 802 787 797 804 779 775 776 779 780 784 786 790 792 794 797 800 803 807 810 813 815 818 820 823 825 827 829 831 832 834 834 835 836 837 837
790 799 794 797 798 796 797 794 806 816 809 792 789 770 792 784 783 783 787 790 791 794 797 799 801 804 807 810 813 815 818 820 822 825 827 829 830 832 833 834 835 835 836 836
793 793 803 798 800 794 802 797 797 798 800 801 799 802 772 785 778 783 786 790 794 796 799 802 804 807 809 811 813 816 818 820 822 825 827 829 830 832 833 834 835 835 835 835
797 799 801 789 790 788 786 781 783 807 794 793 799 803 770 772 773 778 785 789 794 797 801 804 806 808 810 812 814 817 819 821 824 826 827 829 831 832 833 834 835 835 835 835
802 801 813 799 799 793 792 785 781 785 799 801 799 789 775 776 776 780 787 793 797 800 803 806 808 810 812 814 816 818 820 823 825 826 828 830 832 833 834 835 835 835 834 834
803 797 795 805 790 787 791 787 786 791 819 793 787 772 780 779 780 784 789 795 799 802 804 807 810 813 815 817 819 821 823 824 826 827 829 831 833 834 835 836 835 835 834 833
802 802 795 792 788 784 784 784 787 797 788 786 767 766 768 774 779 784 789 794 799 802 805 808 811 814 816 818 820 822 824 826 828 830 832 833 834 835 835 835 834 833 831 830
799 804 792 796 779 781 789 787 784 782 782 780 778 773 766 770 772 781 787 792 797 801 803 806 809 812 815 819 822 824 826 828 830 831 833 834 835 835 834 833 832 830 828 826
797 802 796 795 779 782 789 770 774 770 766 770 781 767 763 773 772 777 784 788 794 798 803 807 810 813 816 820 823 826 829 831 832 833 834 834 834 834 833 831 830 828 825 823
796 795 796 800 782 795 760 760 760 763 759 762 765 766 772 775 778 776 780 786 792 796 802 807 811 815 819 822 824 827 829 831 832 833 834 834 833 832 830 828 827 824 822 820
800 800 800 799 793 770 754 763 763 761 757 753 759 769 775 779 783 785 782 785 791 796 802 807 811 815 820 822 825 827 828 830 831 831 831 831 831 829 827 825 823 820 817 815
804 805 812 793 793 784 761 765 763 762 772 757 758 766 774 780 788 787 783 785 791 797 803 808 813 817 820 823 825 827 828 829 829 830 830 828 828 826 824 822 819 817 815 812
811 810 812 808 801 777 766 768 767 774 771 764 763 767 774 782 785 784 787 791 795 800 804 808 813 816 820 823 824 826 827 828 828 827 827 825 823 821 820 818 816 814 811 809
794 802 803 798 793 790 769 771 771 771 769 769 769 772 780 784 786 789 791 795 798 803 808 811 815 818 821 822 824 825 826 827 825 824 823 822 820 818 816 815 812 811 808 805
790 777 776 776 772 766 766 767 767 766 770 770 773 774 779 784 788 790 795 799 802 806 810 813 816 819 822 823 823 824 823 823 822 822 821 819 817 815 812 810 808 806 805 802
774 770 776 770 759 764 765 765 767 767 767 769 771 774 778 783 787 792 796 801 805 809 811 813 816 818 820 821 821 822 822 822 820 818 817 815 813 811 810 809 806 802 801 798
766 768 769 767 760 762 762 763 765 767 768 770 772 774 778 783 788 793 800 804 807 811 813 815 816 819 820 821 821 820 820 819 818 816 814 812 810 809 807 806 803 799 797 795
763 762 765 758 754 759 756 758 761 767 770 772 774 777 780 784 789 793 799 804 808 811 814 815 816 818 819 819 819 818 817 817 815 812 810 809 808 806 804 801 798 796 793 791
Wind_Speed
6 3 4 9 9 13 4 9 10 5 7 6 8 8 8 5 3 9 9 12 9 9 13 15 17 18 18 17 22 19 17 14 13 10 9 7 7 5 4 3 3 2 2 4
4 5 9 8 6 9 4 9 9 6 5 5 8 9 8 11 7 8 9 9 11 9 10 14 15 18 18 18 21 20 17 15 11 10 9 6 9 7 8 3 2 2 1 3
4 6 2 3 4 6 7 7 8 2 7 3 2 7 8 9 8 8 7 8 9 12 11 8 14 14 17 18 20 20 17 14 13 12 11 10 8 6 5 3 2 1 0 2
4 1 4 2 6 7 8 7 5 4 5 3 7 4 9 11 13 13 10 8 9 11 11 10 15 17 18 18 19 19 17 15 12 11 9 8 6 5 5 7 7 3 2 1
2 5 3 5 3 6 2 6 5 4 4 2 4 1 7 10 7 9 9 9 6 7 12 11 15 18 17 19 19 18 16 13 10 10 8 8 5 4 4 5 5 4 3 2
1 1 3 3 1 3 4 3 1 2 2 1 6 6 4 4 7 7 8 8 8 9 10 11 18 18 21 18 17 16 15 13 10 8 9 8 6 6 6 6 5 5 3 4
3 3 3 2 3 1 3 1 1 2 2 4 3 3 8 3 7 7 10 9 8 8 9 9 10 17 18 17 16 15 14 12 9 9 8 7 7 7 6 4 4 5 5 5
3 2 3 0 2 2 5 1 3 3 4 4 2 5 6 5 8 8 9 9 8 7 8 8 12 18 18 17 15 14 13 12 10 9 8 7 5 4 3 4 4 4 5 4
3 2 2 2 3 1 1 2 1 2 5 1 5 5 2 6 6 7 8 8 8 8 8 8 13 17 16 16 14 13 12 11 9 8 7 5 3 4 2 3 3 3 4 5
4 2 1 4 1 3 2 3 2 1 2 3 4 3 5 6 7 7 8 8 8 7 8 7 9 12 13 13 12 11 9 8 7 6 5 5 3 2 2 3 2 2 3 5
4 3 1 1 7 6 3 2 3 0 2 2 1 5 3 6 8 9 9 9 8 8 7 6 9 10 10 10 9 9 7 7 7 6 5 4 3 2 1 1 2 3 4 6
2 3 3 3 3 4 3 1 4 3 4 2 4 5 4 3 6 8 9 9 8 8 8 7 11 12 12 12 12 11 10 11 11 9 8 7 5 5 5 5 4 4 5 6
5 4 3 1 1 2 3 4 3 3 3 4 1 5 2 5 4 8 9 8 8 7 8 7 11 14 15 16 16 17 16 14 12 12 12 11 11 9 8 6 6 7 8 9
1 3 3 2 1 1 3 4 7 6 3 4 7 4 7 8 7 8 9 9 8 7 8 7 8 13 17 18 18 18 17 15 15 15 14 13 10 8 7 6 8 9 11 12
2 4 2 5 6 5 4 5 8 9 12 4 1 5 4 8 9 8 9 9 8 8 8 8 7 11 16 17 17 17 17 16 14 13 12 10 7 7 7 9 11 13 15 17
3 3 3 5 4 4 6 8 10 11 13 12 11 16 6 6 9 8 9 9 8 8 8 8 8 14 16 16 16 16 15 13 11 10 8 7 7 9 10 13 15 18 20 22
4 3 1 4 1 4 7 14 14 5 4 8 8 5 6 4 7 9 9 9 9 8 8 8 8 14 16 15 14 15 12 9 8 6 5 5 7 10 13 16 18 20 22 24
3 2 1 4 4 3 5 2 3 5 9 9 4 5 6 6 4 4 7 8 9 9 8 7 13 15 16 13 14 11 8 6 4 4 4 7 10 14 16 17 19 21 22 24
4 4 3 3 3 8 4 3 2 3 4 7 6 8 7 6 5 4 4 5 7 8 12 15 17 17 15 14 10 8 6 4 2 2 6 11 14 15 18 19 21 23 25 26
4 4 1 1 3 5 1 2 3 1 4 3 4 7 9 7 3 4 4 7 8 16 18 19 20 17 15 10 7 6 4 2 3 6 11 13 15 18 20 22 23 22 23 26
2 3 6 5 4 7 3 4 1 3 4 2 0 5 7 4 1 6 8 10 17 20 20 20 16 14 14 8 5 3 1 2 5 10 13 16 18 19 19 20 22 23 23 24
6 5 4 4 4 8 6 3 5 3 3 3 4 4 7 7 7 7 8 8 14 16 17 16 16 13 9 5 2 1 3 7 11 14 16 17 18 18 19 20 21 22 22 24
2 6 3 7 4 1 5 2 1 2 4 4 6 5 7 8 7 7 7 8 13 16 14 14 15 10 5 2 2 5 7 10 13 14 16 18 19 19 18 18 19 21 22 21
5 5 4 2 3 4 5 2 4 3 4 5 5 6 8 8 8 8 7 8 10 13 12 12 10 7 5 1 4 6 9 11 13 15 17 18 19 19 17 18 19 20 21 22
4 5 4 5 5 1 4 7 7 5 6 6 6 5 6 8 8 8 9 9 12 12 10 7 6 3 1 4 6 7 9 11 13 14 16 17 17 18 20 19 19 19 21 21
5 6 6 8 4 5 2 6 8 8 7 7 6 6 6 9 8 13 9 14 14 11 7 5 2 1 4 7 9 10 11 12 13 15 15 16 18 18 20 19 20 17 19 21
Wind_Direction
212 213 226 234 234 247 273 206 248 171 175 142 195 217 183 182 214 221 187 171 175 174 187 179 166 172 168 169 164 167 164 166 167 159 158 168 175 171 173 201 131 118 48 72
153 248 229 293 279 264 301 290 246 44 140 165 207 224 171 174 201 220 185 180 165 167 165 159 157 163 167 164 163 164 169 171 162 163 174 171 174 161 175 216 164 134 54 80
263 6 29 296 294 306 257 263 266 161 152 243 354 254 213 196 182 213 217 181 160 173 157 147 153 164 168 170 164 163 167 167 175 174 191 184 178 193 202 190 207 180 71 66
239 237 300 269 283 231 248 313 355 124 113 202 169 253 206 213 198 194 197 212 178 173 149 150 155 171 177 171 166 163 162 167 178 184 172 171 170 189 176 177 185 231 204 242
344 338 211 247 337 340 15 338 308 318 220 357 212 73 255 199 202 204 201 193 190 150 142 143 147 166 167 158 155 161 166 167 174 169 170 186 190 160 162 190 200 200 243 244
33 104 323 10 349 325 325 256 197 336 28 23 256 156 276 175 181 185 173 146 137 124 113 121 137 139 137 152 157 160 162 164 169 171 173 174 175 177 182 192 195 212 222 276
165 150 111 291 245 152 275 238 31 14 8 220 328 50 236 137 29 117 120 107 103 104 113 120 123 132 144 154 162 162 163 163 167 166 171 177 182 189 190 189 201 197 235 256
156 300 179 100 42 348 226 109 129 211 184 217 134 225 249 79 80 60 78 102 107 127 116 129 145 151 157 164 165 165 166 165 170 174 176 181 184 168 176 205 215 229 240 248
317 147 128 346 5 28 171 184 37 315 219 94 199 245 102 118 107 113 109 113 126 128 137 140 146 151 156 161 167 165 165 165 173 178 179 173 175 184 176 241 245 241 260 276
326 292 224 122 257 241 295 295 113 317 300 264 221 203 217 183 161 130 141 134 128 116 113 124 127 133 148 153 152 152 156 163 166 165 161 160 162 186 209 235 265 295 293 293
328 249 159 103 204 185 168 199 206 200 200 252 351 264 348 188 165 157 149 134 136 134 133 121 111 115 120 126 134 141 140 135 137 140 142 132 130 125 98 47 26 348 312 320
57 312 243 190 57 22 341 272 167 142 292 258 172 274 94 80 126 135 134 141 139 121 113 111 117 115 112 114 113 113 116 108 111 111 116 106 86 79 78 62 20 349 337 324
359 260 307 326 345 10 237 204 229 63 55 245 6 270 133 147 160 132 131 119 114 115 115 118 109 105 101 96 94 92 95 99 105 106 101 93 82 75 63 45 27 8 353 343
284 272 240 215 289 226 223 232 193 165 156 221 222 234 210 188 167 140 133 135 136 142 136 117 100 101 106 106 105 104 101 101 100 100 96 87 77 63 42 19 359 346 334 327
239 264 342 278 264 249 229 260 207 216 232 219 1 235 44 178 165 161 143 140 143 143 127 125 125 123 118 112 109 107 102 99 99 94 86 75 56 31 9 349 336 327 321 319
155 273 350 284 251 218 263 253 247 227 239 256 276 284 146 127 105 132 150 147 151 154 153 141 136 136 127 118 114 111 106 100 100 88 68 40 15 353 340 328 323 319 315 310
189 220 187 271 203 294 277 235 218 216 204 207 231 227 149 143 150 159 158 156 161 158 141 140 138 132 127 128 126 114 107 99 85 68 38 1 338 328 326 321 316 312 308 307
291 218 259 267 340 253 239 76 32 226 225 206 149 127 71 113 78 64 145 154 159 148 142 143 133 121 119 112 108 108 103 96 69 28 352 332 325 321 319 316 313 312 313 313
247 307 278 220 227 290 265 212 176 197 281 191 176 149 124 102 83 9 111 139 135 131 139 140 136 131 125 116 117 110 96 94 51 359 320 321 322 318 316 315 316 317 316 314
303 325 294 267 236 251 99 112 38 38 280 79 136 155 142 149 167 192 162 113 112 127 131 121 120 124 123 123 127 113 89 39 345 312 314 318 319 319 317 318 316 314 313 311
171 216 225 244 271 286 112 137 147 114 260 89 299 123 131 154 217 129 96 88 105 114 120 124 129 127 130 136 126 98 29 328 310 316 319 319 321 319 314 311 310 311 312 311
175 186 201 195 236 258 141 90 176 190 77 122 94 98 102 119 105 111 114 114 115 112 121 128 125 125 130 128 115 44 341 325 318 320 319 317 315 312 311 310 313 315 315 312
247 206 202 195 223 131 207 72 325 133 157 164 133 136 131 136 139 131 123 113 113 123 124 130 132 135 143 122 338 334 328 319 317 314 313 314 313 312 313 313 315 314 313 309
226 200 214 13 276 175 199 222 191 219 153 138 131 144 137 139 134 128 120 112 115 135 135 132 135 135 132 111 312 317 311 310 310 312 314 313 314 315 316 313 310 308 307 308
192 129 219 251 278 187 263 203 184 181 125 126 115 130 133 127 129 122 119 122 136 128 122 120 111 101 338 307 306 310 309 309 308 309 312 314 313 311 312 309 308 310 310 307
175 210 228 250 214 191 223 202 163 155 164 147 123 103 101 127 127 123 121 127 129 128 132 129 128 284 306 306 310 315 312 307 305 310 311 308 308 310 310 310 315 312 309 308